Regional Weather Roundup
Issued by NWS Kansas City/Pleasant Hill, MO

Home | Current Version | Previous Version | Graphics & Text | Print | Product List | Glossary Off
Versions: 1 2 3 4 5 6 7 8 9 10 11 12 13 14 15 16 17 18 19 20 21 22 23 24 25 26 27 28 29 30 31 32 33 34 35 36 37 38 39 40 41 42 43 44 45 46 47 48 49 50

014
ASUS43 KEAX 220904
RWREAX

WEATHER ROUNDUP FOR EASTERN KANSAS AND NORTHWEST MISSOURI
NATIONAL WEATHER SERVICE KANSAS CITY/PLEASANT HILL MO
400 AM CDT FRI MAY 22 2015

KSZ040-057-103>105-MOZ028-029-037-043-221000-
...KANSAS CITY METROPOLITAN AREA...

CITY           SKY/WX    TMP DP  RH WIND       PRES   REMARKS
K.C. INTL      PTCLDY    52  45  77 W5        30.21F
K.C. DOWNTOWN  CLEAR     53  45  74 N3        30.20F
LEES SUMMIT    CLEAR     50  44  80 CALM      30.21F
OLATHE - IXD   CLEAR     48  45  89 CALM      30.21F
OLATHE - OJC   CLEAR     49  46  90 CALM      30.20F
LAWRENCE       CLEAR     46  44  93 CALM      30.21F

$$

MOZ001>008-011>017-020>025-030>033-038>040-044>046-053-054-221000-
...NORTHERN AND CENTRAL MISSOURI...

CITY           SKY/WX    TMP DP  RH WIND       PRES   REMARKS
ST. JOSEPH     PTCLDY    47  45  93 CALM      30.21F
MOSBY          SUNNY     46  46 100 CALM      30.21F
WHITEMAN AFB   CLEAR     50  44  80 CALM      30.20F
CLINTON        NOT AVBL
SEDALIA        FAIR      53  44  71 W6        30.23S
WARSAW         NOT AVBL
CHILLICOTHE      N/A     50  45  83 SW3       30.21S
KIRKSVILLE     CLEAR     53  44  71 W7        30.19S

$$

MOZ041-047>049-056>058-063>065-088>090-097-221000-
...EASTERN AND SOUTHERN MISSOURI...

CITY           SKY/WX    TMP DP  RH WIND       PRES   REMARKS
ST. LOUIS INTL CLEAR     53  43  68 W6        30.20R
SPIRIT OF STL  CLEAR     47  44  90 CALM      30.20R
COLUMBIA       CLEAR     51  44  77 W7        30.21S
JEFFERSON CITY CLEAR     47  45  93 CALM      30.22S
ROLLA          CLEAR     44  41  89 SW6       30.20F
OSAGE BEACH    CLEAR     43  39  87 CALM      30.23S
SPRINGFIELD    CLEAR     43  40  89 CALM      30.21F
BRANSON        CLEAR     45  43  93 CALM      30.24R
JOPLIN         CLEAR     44  43  96 E3        30.22S
WEST PLAINS    CLEAR     41  38  89 CALM      30.24R

$$

IAZ060-094-KSZ022-034>040-054-083-096-NEZ052-066-093-221000-
...KANSAS...SOUTHEAST NEBRASKA AND IOWA...

CITY           SKY/WX    TMP DP  RH WIND       PRES   REMARKS
TOPEKA         CLEAR     48  46  93 CALM      30.21S FOG
MANHATTAN      PTCLDY    46  45  96 CALM      30.22R
EMPORIA        PTCLDY    45  43  93 CALM      30.22R
CHANUTE        CLEAR     45  44  97 CALM      30.22R
WICHITA        CLOUDY    53  47  79 CALM      30.20S
OMAHA          PTCLDY    58  40  51 CALM      30.19F
LINCOLN        MOCLDY    46  40  79 N3        30.21F
FALLS CITY     PTCLDY    50  44  80 CALM      30.20S
LAMONI         CLEAR     52  43  71 W8        30.19S
DES MOINES     CLEAR     53  42  66 W6        30.17R

$$




USA.gov is the U.S. government's official web portal to all federal, state and local government web resources and services.